This is the latest recevied weather packets stored in our database for station/object KC1IUC-13. If no packets are shown the sender has not sent any weather packets the latest 10 day(s).
| Time | Temp. | Humidity | Pressure | Rain* | Wind** | Luminosity | Snow |
|---|---|---|---|---|---|---|---|
| 1777891504 | 1.67° C | 72% | 1009.4 hPa | 0 mm | - | 19 W/m² | - |
| 1777890964 | 1.11° C | 72% | 1009.4 hPa | 0 mm | - | 16 W/m² | - |
| 1777890424 | 1.11° C | 72% | 1009 hPa | 0 mm | - | 13 W/m² | - |
| 1777889884 | 0.56° C | 71% | 1009 hPa | 0 mm | - | 9 W/m² | - |
| 1777889344 | 0.56° C | 71% | 1009 hPa | 0 mm | - | 6 W/m² | - |
| 1777888804 | 0° C | 71% | 1008.7 hPa | 0 mm | - | 4 W/m² | - |
| 1777888444 | 0.56° C | 70% | 1008.7 hPa | 0 mm | - | 2 W/m² | - |
| 1777887904 | 0.56° C | 70% | 1008.7 hPa | 0 mm | - | 1 W/m² | - |
| 1777887364 | 0° C | 70% | 1008.7 hPa | 0 mm | - | 0 W/m² | - |
| 1777886824 | 0.56° C | 69% | 1009 hPa | 0 mm | - | 0 W/m² | - |
| 1777886284 | 0.56° C | 69% | 1009 hPa | 0 mm | - | 0 W/m² | - |
| 1777885744 | 0.56° C | 69% | 1008.7 hPa | 0 mm | - | 0 W/m² | - |
| 1777885204 | 0.56° C | 69% | 1008.7 hPa | 0 mm | - | 0 W/m² | - |
| 1777884844 | 0.56° C | 69% | 1008.3 hPa | 0 mm | - | 0 W/m² | - |
| 1777884304 | 0.56° C | 68% | 1008.7 hPa | 0 mm | - | 0 W/m² | - |
| 1777883764 | 0.56° C | 68% | 1008.3 hPa | 0 mm | - | 0 W/m² | - |
| 1777883224 | 0.56° C | 67% | 1008.7 hPa | 0 mm | - | 0 W/m² | - |
| 1777882684 | 1.11° C | 67% | 1008.7 hPa | 0 mm | - | 0 W/m² | - |
| 1777882144 | 1.11° C | 67% | 1008.7 hPa | 0 mm | - | 0 W/m² | - |
| 1777881604 | 1.11° C | 67% | 1008.7 hPa | 0 mm | - | 0 W/m² | - |
| 1777881244 | 1.11° C | 66% | 1008.3 hPa | 0 mm | - | 0 W/m² | - |
| 1777880704 | 1.11° C | 66% | 1008.7 hPa | 0 mm | - | 0 W/m² | - |
| 1777880164 | 1.67° C | 66% | 1008.3 hPa | 0 mm | - | 0 W/m² | - |
| 1777879624 | 1.67° C | 66% | 1008.7 hPa | 0 mm | - | 0 W/m² | - |
| 1777879084 | 1.67° C | 65% | 1008.3 hPa | 0 mm | - | 0 W/m² | - |
* Rain latest hour (hover to see other rain measurements)
** Current wind speed in m/s (hover to see current wind gust speed)